Погода в Хушенге

Россия / Забайкальский край     51°26′00″N   110°55′20″E
темп.,
°C
ветер,
м/с
пор.,
м/с
влажн.,
%
обл.,
%
осадки,
мм/ч
давл.,
гПа
погр.,
м
5 декабря, вс
вс500:00−6з3107294 0.0 1017358
03:00−5з514735 0.0 1018623
06:00−8зюз388563 0.0 1019216
09:00−11зюз379560 0.0 1023179
12:00−5з51273100 0.0 10211162
15:00−5зсз7186231 0.0 10222215
18:00−8зсз6156942 0.1 10261388
21:00−9з41086100 0.1 1029726
6 декабря, пн
пн600:00−10з4138129 0.1 1030728
03:00−11зюз39795 0.1 1030262
06:00−13зюз23938 0.0 103041
09:00−14зюз23959 0.0 102839
12:00−7юз36665 0.0 1025196
15:00−3зюз312512 0.0 1021633
18:00−10з22875 0.0 102419
21:00−11зюз23885 0.0 102536
7 декабря, вт
вт700:00−12зюз23895 0.0 102646
03:00−12зюз22905 0.0 102729
06:00−13зюз21915 0.0 102826
09:00−14зюз11925 0.0 103014
12:00−7юз12585 0.0 1028107
15:00−3юз12505 0.0 1025162
18:00−10зсз11865 0.0 102710
21:00−12с11895 0.0 102710
8 декабря, ср
ср800:00−13ссв119266 0.0 10269
03:00−14св119428 0.0 10249
06:00−13св009362 0.0 102211
09:00−15ссз0094100 0.0 10229
12:00−9юз1268100 0.0 101879
15:00−5зюз2760100 0.0 1016326
18:00−10з2289100 0.0 102136
21:00−11з259075 0.0 1025109
9 декабря, чт
чт900:00−8зсз5157693 0.0 1025626
03:00−10зсз514723 0.0 1028691
06:00−12з411761 0.0 1031522
09:00−16з24945 0.0 1035104
12:00−12з27653 0.0 1035378
15:00−9з25505 0.0 1033623
18:00−15зсз11915 0.0 103710
21:00−17зсз119428 0.0 103910